sat.trackr.live / text

‹ back to catalog

STARLINK-32570

NORAD 62137 · 2024-222Z

PAYLOAD ACTIVE UNKNOWN

§ Identity

Operator
Country
US
Launch date
2024-11-27
Launch site
AFETR
Launch vehicle
Mass (kg)
RCS (m²)

Purposes: comms

External: N2YO · Heavens-Above · Gunter

§ Orbital elements

Epoch: 2026-05-25T03:46:54.498144Z

Period
94.27 min
Inclination
43.0037°
Eccentricity
0.0001359
Mean motion
15.27604615 rev/d
Perigee alt
482.0 km
Apogee alt
483.9 km
Semi-major
6,861.1 km
B*
7.7556e-4
RAAN
64.3370°
Arg perigee
271.8788°
Mean anomaly
88.1908°
Rev number
8,459

§ Raw data

STARLINK-325701 62137U 24222Z   26145.15757521  .00021157  00000+0  77556-3 0  99902 62137  43.0037  64.3370 0001359 271.8788  88.1908 15.27604615 84597

JSON: /api/v1/satellites/62137 · /tle

For live sub-satellite position, see the globe view (requires WebGL).

§ Visibility from observer

Set your observer location to see the next 7 days of passes ≥ 10°. The values pass through the URL so the page stays shareable.

No JS? Fill the form by hand. The geolocation button needs JavaScript.